Weather History for North Myrtle Beach, SC

Change the Weather History Date:

Wednesday, November 14, 2012

  Actual Average Record
Temperature  
Mean Temperature 50 °F 57 °F  
Max Temperature 54 °F 67 °F 81 °F (1955)
Min Temperature 45 °F 47 °F 23 °F (2013)
Degree Days  
Heating Degree Days 15 8  
Month to date heating degree days 160 99  
Since 1 July heating degree days 246 189  
Cooling Degree Days 0 0  
Month to date cooling degree days 1 12  
Year to date cooling degree days 2096 1895  
Moisture  
Dew Point 42 °F    
Average Humidity 76    
Maximum Humidity 86    
Minimum Humidity 66    
Precipitation  
Precipitation T in 0.09 in 0.20 in (2000)
Month to date precipitation 0.42 1.42  
Year to date precipitation 33.65 46.93  
Sea Level Pressure  
Sea Level Pressure 30.33 in    
Wind  
Wind Speed 12 mph (NNE)    
Max Wind Speed 20 mph    
Max Gust Speed 25 mph    
Visibility 10 miles    
Events Rain    
T = Trace of Precipitation, MM = Missing Value Source: NWS Daily Summary

Daily Weather History Graph

Daily Weather History Graph

Search for Another Location

Airport:

Trip Planner

Search our weather history database for the weather conditions in past years. The results will help you decide how hot, cold, wet, or windy it might be!

Date:

Astronomy

Nov. 14, 2012 Rise Set
Actual Time 6:46 AM EST 5:11 PM EST
Civil Twilight 6:20 AM EST 5:38 PM EST
Nautical Twilight 5:49 AM EST 6:08 PM EST
Astronomical Twilight 5:20 AM EST 6:38 PM EST
Moon 7:31 AM EST (11/14) 6:01 PM EST (11/14)
Length of Visible Light 11h 18m
Length of Day
10h 25m
New Moon, 1% of the Moon is Illuminated
Nov 14
New Moon
Nov 20
First Quarter
Nov 28
Full
Dec 6
Last Quarter
Dec 13
New

Hourly Weather History & Observations

Time (EST) Temp. Windchill Dew Point Humidity Pressure Visibility Wind Dir Wind Speed Gust Speed Precip Events Conditions
12:37 AM 46.4 °F 40.1 °F 42.8 °F 87% 30.32 in 10.0 mi NNE 15.0 mph 23.0 mph N/A   Overcast
12:53 AM 46.0 °F 39.3 °F 42.1 °F 86% 30.33 in 10.0 mi NE 16.1 mph 25.3 mph 0.00 in Rain Light Rain
1:53 AM 46.0 °F 41.0 °F 42.1 °F 86% 30.33 in 10.0 mi NNE 10.4 mph - 0.00 in   Overcast
2:53 AM 46.0 °F 39.0 °F 41.0 °F 83% 30.31 in 10.0 mi NNE 17.3 mph 25.3 mph N/A   Overcast
3:02 AM 46.4 °F 39.8 °F 41.0 °F 81% 30.31 in 10.0 mi NNE 16.1 mph 23.0 mph N/A   Overcast
3:53 AM 46.0 °F 39.0 °F 39.9 °F 79% 30.31 in 10.0 mi NE 17.3 mph 23.0 mph N/A   Overcast
4:53 AM 46.0 °F 39.3 °F 39.0 °F 76% 30.32 in 10.0 mi NNE 16.1 mph 21.9 mph N/A   Overcast
5:53 AM 46.0 °F 40.2 °F 39.9 °F 79% 30.34 in 10.0 mi NNE 12.7 mph 19.6 mph N/A   Overcast
6:48 AM 46.4 °F 40.4 °F 39.2 °F 76% 30.35 in 10.0 mi NNE 13.8 mph 21.9 mph N/A   Overcast
6:53 AM 46.0 °F 41.0 °F 39.9 °F 79% 30.35 in 10.0 mi NNE 10.4 mph 21.9 mph N/A   Overcast
7:53 AM 46.0 °F 41.4 °F 41.0 °F 83% 30.37 in 8.0 mi NNE 9.2 mph - N/A   Overcast
8:53 AM 46.9 °F - 41.0 °F 80% 30.38 in 9.0 mi NNE 13.8 mph 19.6 mph N/A   Overcast
9:53 AM 48.9 °F - 41.0 °F 74% 30.38 in 7.0 mi NNE 11.5 mph 17.3 mph N/A   Overcast
10:00 AM 48.2 °F - 41.0 °F 76% 30.38 in 10.0 mi NNE 16.1 mph 20.7 mph N/A   Overcast
10:53 AM 52.0 °F - 42.1 °F 69% 30.37 in 10.0 mi NE 13.8 mph 20.7 mph N/A   Overcast
11:00 AM 51.8 °F - 42.8 °F 71% 30.38 in 10.0 mi NNE 11.5 mph - N/A   Overcast
11:53 AM 51.1 °F - 42.1 °F 71% 30.36 in 10.0 mi NNE 11.5 mph 17.3 mph N/A   Overcast
12:53 PM 53.1 °F - 43.0 °F 69% 30.34 in 10.0 mi North 11.5 mph 16.1 mph N/A   Overcast
1:53 PM 54.0 °F - 43.0 °F 66% 30.31 in 10.0 mi North 6.9 mph 18.4 mph N/A   Overcast
2:53 PM 53.1 °F - 42.1 °F 66% 30.31 in 10.0 mi North 10.4 mph - N/A   Overcast
3:53 PM 53.1 °F - 42.1 °F 66% 30.30 in 10.0 mi NNE 10.4 mph 20.7 mph N/A   Overcast
4:53 PM 51.1 °F - 41.0 °F 68% 30.31 in 10.0 mi NNE 12.7 mph 19.6 mph N/A   Overcast
5:53 PM 51.1 °F - 42.1 °F 71% 30.31 in 10.0 mi NNE 9.2 mph - N/A   Overcast
6:53 PM 50.0 °F - 43.0 °F 77% 30.31 in 10.0 mi NNE 12.7 mph - N/A   Overcast
7:53 PM 50.0 °F - 43.0 °F 77% 30.32 in 10.0 mi NE 10.4 mph 19.6 mph N/A   Overcast
8:53 PM 48.9 °F - 42.1 °F 77% 30.32 in 10.0 mi NE 11.5 mph 19.6 mph N/A   Overcast
9:53 PM 48.9 °F - 42.1 °F 77% 30.32 in 10.0 mi NE 9.2 mph - N/A   Overcast
10:53 PM 48.9 °F - 42.1 °F 77% 30.31 in 10.0 mi NNE 11.5 mph - N/A   Overcast
11:53 PM 48.9 °F - 42.1 °F 77% 30.30 in 10.0 mi NNE 11.5 mph 16.1 mph N/A   Overcast